Location: Casone le Fosse
(44.6547°N, 12.1103°E)
Time: 11:26:42
(UTC+00:00)

Cosmos 2227 Rocket - Pass Details

Date: 29 October 2020
Orbit: 839 x 845 km, 71.0° (Epoch: 27 November)

Event Time Altitude Azimuth Distance (km) Brightness Sun altitude
Rises 16:51:46 0° 336° (NNW) 3,407 5.5 -9.0°
Reaches altitude 10° 16:54:15 10° 340° (NNW) 2,469 4.8 -9.5°
Maximum altitude 16:59:52 63° 61° (ENE) 942 2.2 -10.4°
Drops below altitude 10° 17:05:28 10° 143° (SE) 2,458 4.3 -11.4°
Sets 17:07:56 0° 146° (SSE) 3,390 5.1 -11.9°
